This is the latest recevied weather packets stored in our database for station/object K6MLE. If no packets are shown the sender has not sent any weather packets the latest 10 day(s).
| Time | Temp. | Humidity | Pressure | Rain* | Wind** | Luminosity | Snow |
|---|---|---|---|---|---|---|---|
| 1778034616 | 11.67° C | 92% | 1015.4 hPa | 0 mm | - | - | - |
| 1778031015 | 11.67° C | 91% | 1015.4 hPa | 0 mm | - | - | - |
| 1778026817 | 11.11° C | 92% | 1014.7 hPa | 0 mm | - | - | - |
| 1778025624 | 11.11° C | 92% | 1014.7 hPa | 0 mm | - | - | - |
| 1778013017 | 11.67° C | 90% | 1014.7 hPa | 0 mm | - | - | - |
| 1778010617 | 11.11° C | 90% | 1014.8 hPa | 0 mm | - | - | - |
| 1778002817 | 11.67° C | 89% | 1014.4 hPa | 0 mm | - | - | - |
| 1777996217 | 10° C | 95% | 1013.8 hPa | 0 mm | - | - | - |
| 1777991416 | 8.33° C | 96% | 1013.2 hPa | 0 mm | - | - | - |
| 1777989617 | 8.33° C | 95% | 1013.2 hPa | 0 mm | - | - | - |
| 1777987236 | 8.33° C | 95% | 1012.9 hPa | 0 mm | - | - | - |
| 1777986016 | 8.33° C | 95% | 1013.1 hPa | 0 mm | - | - | - |
| 1777985416 | 8.33° C | 95% | 1013.1 hPa | 0 mm | - | - | - |
| 1777977036 | 8.33° C | 95% | 1012.8 hPa | 0 mm | - | - | - |
| 1777971016 | 8.33° C | 95% | 1013.8 hPa | 0.51 mm | - | - | - |
| 1777963816 | 8.33° C | 95% | 1014 hPa | 0.25 mm | - | - | - |
| 1777951836 | 8.89° C | 95% | 1013.9 hPa | 2.03 mm | - | - | - |
| 1777950016 | 8.89° C | 94% | 1013.7 hPa | 2.29 mm | - | - | - |
| 1777946416 | 8.89° C | 94% | 1013.7 hPa | 2.03 mm | - | - | - |
| 1777945815 | 8.89° C | 94% | 1013.8 hPa | 1.78 mm | - | - | - |
| 1777945215 | 8.89° C | 94% | 1013.8 hPa | 1.78 mm | - | - | - |
| 1777943417 | 8.89° C | 94% | 1013.9 hPa | 0.76 mm | - | - | - |
| 1777942218 | 8.89° C | 94% | 1013.7 hPa | 1.78 mm | - | - | - |
| 1777935617 | 8.89° C | 93% | 1014.1 hPa | 1.52 mm | - | - | - |
| 1777933217 | 9.44° C | 93% | 1014.3 hPa | 0.76 mm | - | - | - |
* Rain latest hour (hover to see other rain measurements)
** Current wind speed in m/s (hover to see current wind gust speed)